MST,Max TemperatureF,Mean TemperatureF,Min TemperatureF,Max Dew PointF,MeanDew PointF,Min DewpointF,Max Humidity, Mean Humidity, Min Humidity, Max Sea Level PressureIn, Mean Sea Level PressureIn, Min Sea Level PressureIn, Max VisibilityMiles, Mean VisibilityMiles, Min VisibilityMiles, Max Wind SpeedMPH, Mean Wind SpeedMPH, Max Gust SpeedMPH,PrecipitationIn, CloudCover, Events, WindDirDegrees
2014-1-1,39,28,16,33,23,14,93,77,41,30.40,30.15,29.83,10,8,2,29,15,34,T,7,Snow,352
2014-1-2,46,32,17,28,17,13,89,64,30,30.37,30.28,30.05,10,10,10,14,11,,0.00,0,,234
2014-1-3,64,43,22,23,17,15,74,43,16,30.02,29.75,29.58,10,10,10,17,11,25,0.00,0,,241
2014-1-4,45,23,0,25,17,-3,88,81,60,30.25,29.95,29.64,10,4,0,21,14,28,0.02,6,Fog-Snow,6
2014-1-5,13,0,-14,5,0,-18,87,76,65,30.66,30.37,30.19,10,7,2,23,11,31,T,6,Snow,350
2014-1-6,23,4,-16,7,-2,-20,80,66,44,30.61,30.48,30.22,10,10,10,21,11,,0.00,0,,248
2014-1-7,43,28,12,27,19,4,82,64,51,30.20,30.09,29.96,10,10,10,14,10,,0.00,2,,214
2014-1-8,33,26,18,22,18,15,88,76,66,30.22,30.14,29.98,10,10,10,15,9,,0.00,2,,99
2014-1-9,38,25,12,27,19,12,93,86,65,30.11,29.92,29.62,10,7,0,16,12,,0.00,2,Fog,205
2014-1-10,43,33,22,25,20,15,88,63,34,29.89,29.71,29.61,10,9,2,34,19,46,T,4,Snow,310
2014-1-11,49,36,22,23,21,16,78,53,33,30.06,29.89,29.60,10,10,10,23,13,28,0.00,1,,237
2014-1-12,53,41,28,24,18,9,58,43,24,29.93,29.68,29.54,10,10,10,32,15,43,T,1,,305
2014-1-13,54,36,18,19,14,10,71,46,20,30.01,29.96,29.89,10,10,10,30,14,39,0.00,2,,280
2014-1-14,46,36,26,28,20,7,89,63,29,30.41,30.25,29.92,10,9,2,28,19,34,T,7,Snow,324
2014-1-15,58,41,24,20,18,16,69,49,22,30.30,30.11,29.94,10,10,10,24,13,31,0.00,1,,274
2014-1-16,46,34,21,20,13,7,67,41,25,30.31,30.18,30.03,10,8,2,44,20,56,0.00,3,,333
2014-1-17,51,34,17,19,13,10,77,48,24,30.26,30.15,30.03,10,10,10,21,11,28,0.00,0,,283
2014-1-18,51,37,22,17,14,10,60,42,20,30.24,30.13,30.04,10,10,6,43,18,51,0.00,0,,297
2014-1-19,68,46,24,16,9,3,55,30,8,30.09,29.98,29.88,10,10,10,18,13,28,0.00,0,,277
2014-1-20,49,33,17,17,11,8,68,40,23,30.45,30.23,29.90,10,10,10,25,15,40,0.00,0,,327
2014-1-21,62,39,16,17,4,-10,71,36,5,30.39,30.20,30.06,10,10,10,33,11,40,0.00,0,,300
2014-1-22,46,28,10,22,13,6,84,62,40,30.46,30.24,30.09,10,8,2,21,13,28,T,3,Snow,31
2014-1-23,13,7,1,6,1,-2,84,78,70,30.82,30.58,30.37,10,5,1,20,12,,0.01,5,Snow,78
2014-1-24,54,32,9,24,16,3,71,52,22,30.47,30.26,30.11,10,10,10,26,15,33,0.00,0,,278
2014-1-25,56,41,25,25,22,19,78,48,28,30.15,30.02,29.86,10,10,10,21,13,28,0.00,0,,289
2014-1-26,57,37,17,24,19,4,72,54,26,30.22,29.94,29.75,10,10,10,30,14,40,0.00,3,,347
2014-1-27,18,12,6,11,9,2,88,78,52,30.39,30.25,30.14,10,4,0,17,6,24,0.11,7,Fog-Snow,272
2014-1-28,22,9,-5,10,0,-9,91,79,60,30.49,30.33,30.19,10,8,1,13,7,,T,1,Snow,271
2014-1-29,41,22,3,25,15,0,70,58,48,30.18,29.90,29.47,10,10,10,23,13,,0.00,0,,223
2014-1-30,46,34,22,32,26,20,92,75,56,29.83,29.71,29.44,10,8,2,24,15,34,0.02,6,Snow,78
2014-1-31,22,19,16,19,16,13,93,87,81,30.01,29.86,29.73,10,7,2,15,11,,0.08,8,Snow,102